Location: Albuquerque Trailhead
(34.7934°N, 106.3736°W)
Time: 02:20:33
(UTC+00:00)

Cosmos 1025 Rocket - Pass Details

Date: 20 June 2021
Orbit: 593 x 619 km, 82.5° (Epoch: 27 July)

Event Time Altitude Azimuth Distance (km) Brightness Sun altitude
Exits shadow 04:15:20 36° 176° (S) 986 3.7 -18.9°
Maximum altitude 04:17:06 79° 95° (E) 632 2.9 -19.2°
Drops below altitude 10° 04:21:28 10° 9° (N) 1,976 6.2 -19.8°
Sets 04:23:42 0° 9° (N) 2,881 7.1 -20.1°
